Location: Stockholm
(59.3330°N, 18.0500°E)
Time: 22:56:14
(UTC+02:00)

NOAA 18 - Pass Details

Date: 06 April 2023
Orbit: 838 x 860 km, 98.9° (Epoch: 02 June)

Event Time Altitude Azimuth Distance (km) Brightness Sun altitude
Exits shadow 20:22:53 - 106° (ESE) 2,787 7.2 -5.8°
Reaches altitude 10° 20:23:45 10° 101° (ESE) 2,504 7.0 -5.9°
Maximum altitude 20:28:15 26° 47° (NE) 1,637 6.5 -6.4°
Drops below altitude 10° 20:32:45 10° 353° (N) 2,509 8.1 -6.9°
Sets 20:35:28 0° 342° (NNW) 3,447 9.1 -7.2°
